TimeCDT,TemperatureF,Dew PointF,Humidity,Sea Level PressureIn,VisibilityMPH,Wind Direction,Wind SpeedMPH,Gust SpeedMPH,PrecipitationIn,Events,Conditions,WindDirDegrees,DateUTC
12:53 AM,41.0,39.0,93,29.90,10.0,WSW,6.9,-,N/A,,Clear,250,2012-10-10 05:53:00
1:53 AM,39.9,37.9,93,29.91,10.0,West,5.8,-,N/A,,Clear,270,2012-10-10 06:53:00
2:53 AM,39.0,37.0,93,29.92,10.0,West,8.1,-,N/A,,Clear,270,2012-10-10 07:53:00
3:53 AM,37.9,35.1,89,29.93,10.0,West,6.9,-,N/A,,Clear,280,2012-10-10 08:53:00
4:53 AM,37.0,34.0,89,29.95,10.0,West,8.1,-,N/A,,Clear,280,2012-10-10 09:53:00
5:53 AM,36.0,32.0,86,29.97,10.0,West,5.8,-,N/A,,Clear,280,2012-10-10 10:53:00
6:53 AM,35.1,30.9,85,30.00,10.0,West,6.9,-,N/A,,Clear,270,2012-10-10 11:53:00
7:53 AM,36.0,30.9,82,30.03,10.0,West,8.1,-,N/A,,Clear,270,2012-10-10 12:53:00
8:53 AM,39.0,32.0,76,30.05,10.0,WNW,10.4,19.6,N/A,,Clear,290,2012-10-10 13:53:00
9:53 AM,42.1,32.0,67,30.08,10.0,WNW,12.7,18.4,N/A,,Clear,290,2012-10-10 14:53:00
10:53 AM,42.1,28.9,60,30.09,10.0,NW,13.8,23.0,N/A,,Mostly Cloudy,310,2012-10-10 15:53:00
11:53 AM,44.1,23.0,43,30.10,10.0,WNW,18.4,26.5,N/A,,Scattered Clouds,300,2012-10-10 16:53:00
12:53 PM,45.0,21.0,39,30.09,10.0,NW,16.1,27.6,N/A,,Scattered Clouds,310,2012-10-10 17:53:00
1:53 PM,45.0,21.9,40,30.10,9.0,WNW,13.8,23.0,N/A,,Partly Cloudy,290,2012-10-10 18:53:00
2:53 PM,46.9,23.0,39,30.11,10.0,West,15.0,23.0,N/A,,Partly Cloudy,280,2012-10-10 19:53:00
3:53 PM,48.0,21.9,36,30.11,10.0,WNW,13.8,20.7,N/A,,Scattered Clouds,290,2012-10-10 20:53:00
4:53 PM,48.0,21.9,36,30.12,10.0,WNW,10.4,18.4,N/A,,Partly Cloudy,290,2012-10-10 21:53:00
5:53 PM,46.9,21.9,37,30.13,10.0,West,5.8,-,N/A,,Clear,280,2012-10-10 22:53:00
6:53 PM,42.1,25.0,51,30.15,9.0,WSW,3.5,-,N/A,,Clear,240,2012-10-10 23:53:00
7:53 PM,37.9,28.9,70,30.17,10.0,SW,3.5,-,N/A,,Clear,220,2012-10-11 00:53:00
8:53 PM,37.0,30.0,76,30.17,10.0,SW,4.6,-,N/A,,Clear,220,2012-10-11 01:53:00
9:53 PM,39.0,26.1,60,30.18,10.0,SW,3.5,-,N/A,,Clear,230,2012-10-11 02:53:00
10:53 PM,37.9,27.0,65,30.18,10.0,SW,5.8,-,N/A,,Clear,230,2012-10-11 03:53:00
11:53 PM,36.0,27.0,70,30.17,10.0,SW,5.8,-,N/A,,Clear,230,2012-10-11 04:53:00